WM1R Weather Reports


Display with metric or nautical units.
time (UTC)temp
F
wind
direction
speed
MPH
gust
MPH
rain 1hr
in
rain 24hr
in
rain mn
in
humidity
%
barometer
mb
20260509081506 37 217 1.0 3.0 0.00 0.00 0.00 70 1014.6
20260509080007 38 212 2.0 4.0 0.00 0.00 0.00 69 1014.8
20260509074508 38 210 2.0 5.0 0.00 0.00 0.00 69 1015.1
20260509073008 38 206 2.0 4.0 0.00 0.00 0.00 71 1015.1
20260509071509 38 214 3.0 4.0 0.00 0.00 0.00 71 1015.2
20260509070008 38 209 2.0 6.0 0.00 0.00 0.00 71 1015.3
20260509064512 38 213 2.0 4.0 0.00 0.00 0.00 72 1015.3
20260509063022 38 229 2.0 5.0 0.00 0.00 0.00 71 1015.3
20260509061508 38 205 3.0 7.0 0.00 0.00 0.00 71 1015.3
20260509060007 38 215 2.0 4.0 0.00 0.00 0.00 70 1015.3
20260509054510 39 216 3.0 5.0 0.00 0.00 0.00 69 1015.3
20260509053011 38 202 2.0 4.0 0.00 0.00 0.00 69 1015.2
20260509051513 38 209 2.0 4.0 0.00 0.00 0.00 70 1015.1
20260509050011 38 205 2.0 4.0 0.00 0.00 0.00 71 1015.1
20260509044510 38 222 2.0 4.0 0.00 0.00 0.00 71 1015.0
20260509043022 38 207 2.0 3.0 0.00 0.00 0.00 71 1015.1
20260509041514 38 194 3.0 4.0 0.00 0.00 0.00 71 1015.2
20260509040013 38 200 2.0 4.0 0.00 0.00 0.00 73 1015.1
20260509034515 38 197 3.0 4.0 0.00 0.00 0.00 73 1014.9
20260509033010 38 202 3.0 5.0 0.00 0.00 0.00 72 1014.8
20260509031516 38 205 2.0 4.0 0.00 0.00 0.00 73 1014.7
20260509030015 38 196 3.0 3.0 0.00 0.00 0.00 73 1014.7
20260509024506 39 190 2.0 3.0 0.00 0.00 0.00 71 1014.6
20260509023008 39 206 2.0 3.0 0.00 0.00 0.00 71 1014.4
20260509021514 40 190 2.0 4.0 0.00 0.00 0.00 69 1014.4
20260509020014 40 197 3.0 3.0 0.00 0.00 0.00 69 1014.2
20260509014525 41 205 2.0 3.0 0.00 0.00 0.00 67 1014.0
20260509013007 42 177 2.0 3.0 0.00 0.00 0.00 64 1013.9
20260509011513 44 225 2.0 6.0 0.00 0.00 0.00 62 1013.7
20260509010025 44 182 1.0 7.0 0.00 0.00 0.00 60 1013.3
20260509004522 45 218 0.0 5.0 0.00 0.00 0.00 59 1013.2
20260509003018 45 259 3.0 6.0 0.00 0.00 0.00 56 1012.9
20260509001510 45 223 2.0 4.0 0.00 0.00 0.00 50 1012.6
20260509000016 46 246 0.0 2.0 0.00 0.00 0.00 47 1012.5
20260508234518 46 238 0.0 2.0 0.00 0.00 0.00 46 1012.3
20260508233018 47 184 0.0 2.0 0.00 0.00 0.00 46 1012.1
20260508231518 47 309 1.0 5.0 0.00 0.00 0.00 42 1012.1
20260508230012 48 222 1.0 6.0 0.00 0.00 0.00 41 1012.0
20260508224521 48 145 2.0 7.0 0.00 0.00 0.00 41 1011.7
20260508223020 49 202 4.0 6.0 0.00 0.00 0.00 39 1011.7
20260508221522 49 324 2.0 7.0 0.00 0.00 0.00 40 1011.6
20260508220022 50 126 1.0 8.0 0.00 0.00 0.00 42 1011.5
20260508214524 49 271 4.0 12.0 0.00 0.00 0.00 39 1011.4
20260508213019 49 317 3.0 9.0 0.00 0.00 0.00 40 1011.4
20260508211522 49 247 3.0 10.0 0.00 0.00 0.00 44 1011.4
20260508210031 48 263 3.0 10.0 0.00 0.00 0.00 42 1011.3
20260508204514 50 279 2.0 10.0 0.00 0.00 0.00 43 1011.1
20260508203022 49 247 2.0 11.0 0.00 0.00 0.00 44 1011.1
20260508201524 49 286 3.0 11.0 0.00 0.00 0.00 43 1011.1
20260508200026 49 61 7.0 12.0 0.00 0.00 0.00 43 1011.0
20260508194525 48 238 1.0 8.0 0.00 0.00 0.00 49 1011.2
20260508193016 48 243 3.0 7.0 0.00 0.00 0.00 45 1011.2
20260508191520 47 336 1.0 10.0 0.00 0.00 0.00 45 1011.2
20260508190005 47 236 2.0 6.0 0.00 0.00 0.00 46 1011.2
20260508184514 47 329 2.0 9.0 0.00 0.00 0.00 47 1011.3
20260508183013 47 40 2.0 9.0 0.00 0.00 0.00 49 1011.3
20260508181518 46 347 2.0 9.0 0.00 0.00 0.00 49 1011.5
20260508180004 46 278 2.0 12.0 0.00 0.00 0.00 46 1011.4
20260508174509 46 267 6.0 11.0 0.00 0.00 0.00 46 1011.5
20260508173009 47 252 6.0 13.0 0.00 0.00 0.00 49 1011.5
20260508171523 46 255 4.0 11.0 0.00 0.00 0.00 48 1011.5
20260508170021 45 275 3.0 9.0 0.00 0.00 0.00 49 1011.6
20260508164504 46 308 3.0 9.0 0.00 0.00 0.00 52 1011.7
20260508163015 46 296 4.0 14.0 0.00 0.00 0.00 50 1011.6
20260508161527 47 298 3.0 9.0 0.00 0.00 0.00 46 1011.4
20260508160017 46 257 4.0 10.0 0.00 0.00 0.00 48 1011.2
20260508154525 47 248 2.0 10.0 0.00 0.00 0.00 46 1011.1
20260508153016 47 18 4.0 11.0 0.00 0.00 0.00 47 1011.0
20260508150017 46 281 6.0 12.0 0.00 0.00 0.00 45 1011.2
20260508144522 46 231 7.0 13.0 0.00 0.00 0.00 45 1011.0
20260508143005 46 209 4.0 12.0 0.00 0.00 0.00 44 1011.0
20260508141508 47 195 4.0 13.0 0.00 0.00 0.00 42 1011.1
20260508140016 46 312 3.0 16.0 0.00 0.00 0.00 43 1011.1
20260508134522 45 214 5.0 15.0 0.00 0.00 0.00 42 1011.2
20260508133024 45 217 6.0 12.0 0.00 0.00 0.00 43 1011.2
20260508131510 45 280 6.0 14.0 0.00 0.00 0.00 50 1011.4
20260508130014 44 350 2.0 10.0 0.00 0.00 0.00 52 1011.5
20260508124519 43 213 3.0 12.0 0.00 0.00 0.00 56 1011.6
20260508123024 41 202 3.0 7.0 0.00 0.00 0.00 61 1011.5
20260508121528 41 230 5.0 10.0 0.00 0.00 0.00 62 1011.5
20260508120009 41 258 6.0 11.0 0.00 0.00 0.00 62 1011.5
20260508114514 40 223 6.0 10.0 0.00 0.00 0.00 62 1011.4
20260508113020 40 225 2.0 8.0 0.00 0.00 0.00 63 1011.3
20260508111523 40 238 4.0 9.0 0.00 0.00 0.00 65 1011.2
20260508110032 39 223 3.0 8.0 0.00 0.00 0.00 65 1011.1
20260508104516 38 206 1.0 6.0 0.00 0.00 0.00 66 1011.0
20260508103035 37 199 2.0 7.0 0.00 0.00 0.00 69 1010.8
20260508101522 36 194 2.0 6.0 0.00 0.00 0.00 71 1010.7
20260508100028 35 183 3.0 5.0 0.00 0.00 0.00 73 1010.4
20260508094528 34 207 3.0 5.0 0.00 0.00 0.00 74 1010.3
20260508093014 34 194 3.0 6.0 0.00 0.00 0.00 73 1010.1
20260508091518 34 184 3.0 6.0 0.00 0.00 0.00 72 1010.2
20260508090027 34 202 4.0 6.0 0.00 0.00 0.00 73 1010.2
20260508084528 34 193 3.0 5.0 0.00 0.00 0.00 73 1010.2
20260508083029 34 195 3.0 5.0 0.00 0.00 0.00 73 1010.1